Phuket, Thailand

11:03 AM +07 on February 26, 2018 (GMT +0700)
Phuket International

Weather History for VTSP - December, 2013

Change the Weather History Date:

Saturday, December 21, 2013

  Actual Average Record
Temperature  
Mean Temperature 80 °F -  
Max Temperature 89 °F 89 °F 93 °F (2000)
Min Temperature 70 °F 74 °F 69 °F (2017)
Cooling Degree Days 14    
Growing Degree Days 30 (Base 50)    
Moisture  
Dew Point 67 °F    
Average Humidity 64    
Maximum Humidity 94    
Minimum Humidity 43    
Precipitation  
Precipitation 0.00 in 0.07 in - ()
Sea Level Pressure  
Sea Level Pressure 29.88 in    
Wind  
Wind Speed 8 mph ()    
Max Wind Speed 15 mph    
Max Gust Speed -    
Visibility 6.0 miles    
Events      
Averages and records for this station are not official NWS values.
T = Trace of Precipitation, MM = Missing Value Source: Averaged Metar Reports

Daily Weather History Graph

Daily Weather History Graph

Search for Another Location

Airport or City:

Trip Planner

Search our weather history database for the weather conditions in past years. The results will help you decide how hot, cold, wet, or windy it might be!

Date:

Astronomy

Dec. 21, 2013 Rise Set
Actual Time 6:35 AM +07 6:14 PM +07
Civil Twilight 6:12 AM +07 6:37 PM +07
Nautical Twilight 5:46 AM +07 7:03 PM +07
Astronomical Twilight 5:19 AM +07 7:29 PM +07
Moon 9:25 PM +07 (12/21) 9:16 AM +07 (12/21)
Length of Visible Light 12h 24m
Length of Day
11h 39m
Waning Gibbous, 87% of the Moon is Illuminated
Dec 21
Waning Gibbous
Dec 25
Last Quarter
Jan 1
New
Jan 8
First Quarter
Jan 16
Full

Hourly Weather History & Observations

Time (+07) Temp. Heat Index Dew Point Humidity Pressure Visibility Wind Dir Wind Speed Gust Speed Precip Events Conditions
12:00 AM 75.2 °F - 68.0 °F 78% 29.92 in 5.6 mi NE 4.6 mph - N/A   Scattered Clouds
12:30 AM 75.2 °F - 68.0 °F 78% 29.92 in 5.6 mi ENE 3.5 mph - N/A   Scattered Clouds
1:00 AM 78 °F - 70 °F 69% 29.88 in 6 mi Calm Calm - -   Scattered Clouds
1:00 AM 75.2 °F - 68.0 °F 78% 29.92 in 5.6 mi ENE 4.6 mph - N/A   Scattered Clouds
1:30 AM 75.2 °F - 68.0 °F 78% 29.92 in 5.6 mi ENE 3.5 mph - N/A   Scattered Clouds
2:00 AM 75.2 °F - 68.0 °F 78% 29.89 in 5.6 mi ENE 5.8 mph - N/A   Scattered Clouds
2:30 AM 75.2 °F - 66.2 °F 73% 29.89 in 5.6 mi ENE 8.1 mph - N/A   Scattered Clouds
3:00 AM 75.2 °F - 66.2 °F 73% 29.86 in 5.6 mi ENE 8.1 mph - N/A   Scattered Clouds
3:30 AM 75.2 °F - 66.2 °F 73% 29.86 in 5.6 mi East 9.2 mph - N/A   Scattered Clouds
4:00 AM 77 °F - 69 °F 69% 29.84 in 6 mi East 3.5 mph - -   Scattered Clouds
4:00 AM 75.2 °F - 66.2 °F 73% 29.86 in 5.6 mi East 8.1 mph - N/A   Scattered Clouds
4:30 AM 75.2 °F - 66.2 °F 73% 29.86 in 5.6 mi East 9.2 mph - N/A   Scattered Clouds
5:00 AM 75.2 °F - 66.2 °F 73% 29.86 in 5.6 mi East 10.4 mph - N/A   Scattered Clouds
5:30 AM 75.2 °F - 66.2 °F 73% 29.89 in 5.6 mi ENE 8.1 mph - N/A   Scattered Clouds
6:00 AM 75.2 °F - 66.2 °F 73% 29.89 in 5.6 mi East 9.2 mph - N/A   Scattered Clouds
6:30 AM 75.2 °F - 66.2 °F 73% 29.89 in 5.0 mi ENE 9.2 mph - N/A   Mostly Cloudy
7:00 AM 75 °F - 68 °F 74% 29.87 in 6 mi ENE 5.8 mph - -   Scattered Clouds
7:00 AM 75.2 °F - 66.2 °F 73% 29.89 in 5.6 mi ENE 8.1 mph - N/A   Scattered Clouds
7:30 AM 77.0 °F - 66.2 °F 69% 29.92 in 5.6 mi East 9.2 mph - N/A   Scattered Clouds
8:00 AM 78.8 °F - 66.2 °F 65% 29.92 in 6.2 mi ENE 10.4 mph - N/A   Scattered Clouds
8:30 AM 78.8 °F - 66.2 °F 65% 29.92 in 6.2 mi ENE 15.0 mph - N/A   Scattered Clouds
9:00 AM 80.6 °F 82.7 °F 66.2 °F 61% 29.95 in 6.2 mi ENE 13.8 mph - N/A   Scattered Clouds
9:30 AM 82.4 °F 85.4 °F 68.0 °F 62% 29.95 in 6.2 mi ENE 13.8 mph - N/A   Scattered Clouds
10:00 AM 84 °F - 69 °F 52% 29.91 in 6 mi ENE 9.2 mph - -   Scattered Clouds
10:00 AM 82.4 °F 85.4 °F 68.0 °F 62% 29.95 in 6.2 mi ENE 13.8 mph - N/A   Scattered Clouds
10:30 AM 86.0 °F 89.4 °F 68.0 °F 55% 29.92 in 6.2 mi East 13.8 mph - N/A   Scattered Clouds
11:00 AM 84.2 °F 87.3 °F 68.0 °F 58% 29.92 in 6.2 mi ENE 11.5 mph - N/A   Scattered Clouds
11:30 AM 84.2 °F 86.6 °F 66.2 °F 55% 29.92 in 6.2 mi ENE 13.8 mph - N/A   Scattered Clouds
12:30 PM 86.0 °F 88.2 °F 66.2 °F 51% 29.89 in 6.2 mi ENE 12.7 mph - N/A   Scattered Clouds
1:00 PM 86 °F - 68 °F 46% 29.88 in 6 mi ENE 9.2 mph - -   Scattered Clouds
1:00 PM 86.0 °F 88.2 °F 66.2 °F 51% 29.89 in 6.2 mi East 15.0 mph - N/A   Scattered Clouds
1:30 PM 86.0 °F 88.2 °F 66.2 °F 51% 29.86 in 6.2 mi East 11.5 mph - N/A   Scattered Clouds
2:00 PM 87.8 °F 90.4 °F 66.2 °F 49% 29.86 in 6.2 mi East 12.7 mph - N/A   Scattered Clouds
2:30 PM 86.0 °F 107.7 °F 84.2 °F 94% 29.83 in 6.2 mi ENE 12.7 mph - N/A   Scattered Clouds
3:00 PM 87.8 °F 90.4 °F 66.2 °F 49% 29.83 in 6.2 mi East 13.8 mph - N/A   Scattered Clouds
3:30 PM 87.8 °F 91.4 °F 68.0 °F 52% 29.83 in 6.2 mi ENE 11.5 mph - N/A   Scattered Clouds
4:00 PM 88 °F - 69 °F 43% 29.81 in 6 mi ENE 6.9 mph - -   Scattered Clouds
4:00 PM 86.0 °F 88.2 °F 66.2 °F 51% 29.83 in 6.2 mi ENE 10.4 mph - N/A   Scattered Clouds
4:30 PM 86.0 °F 88.2 °F 66.2 °F 51% 29.83 in 6.2 mi East 12.7 mph - N/A   Scattered Clouds
5:00 PM 84.2 °F 86.6 °F 66.2 °F 55% 29.83 in 6.2 mi ENE 9.2 mph - N/A   Scattered Clouds
5:30 PM 84.2 °F 87.3 °F 68.0 °F 58% 29.83 in 6.2 mi ENE 9.2 mph - N/A   Scattered Clouds
6:30 PM 80.6 °F 82.7 °F 66.2 °F 61% 29.86 in 6.2 mi ENE 11.5 mph - N/A   Scattered Clouds
7:00 PM 82 °F - 69 °F 56% 29.83 in 6 mi ENE 5.8 mph - -   Scattered Clouds
7:00 PM 80.6 °F 82.7 °F 66.2 °F 61% 29.86 in 6.2 mi ENE 8.1 mph - N/A   Scattered Clouds
7:30 PM 84.2 °F 86.6 °F 66.2 °F 55% 29.86 in 6.2 mi ENE 9.2 mph - N/A   Partly Cloudy
8:00 PM 78.8 °F - 66.2 °F 65% 29.89 in 6.2 mi ENE 9.2 mph - N/A   Partly Cloudy
8:30 PM 78.8 °F - 66.2 °F 65% 29.89 in 6.2 mi ENE 9.2 mph - N/A   Scattered Clouds
9:00 PM 77.0 °F - 66.2 °F 69% 29.92 in 6.2 mi ENE 8.1 mph - N/A   Scattered Clouds
9:30 PM 77.0 °F - 64.4 °F 65% 29.92 in 6.2 mi ENE 11.5 mph - N/A   Scattered Clouds
10:00 PM 78 °F - 67 °F 61% 29.89 in 6 mi ENE 11.5 mph - -   Scattered Clouds
10:00 PM 77.0 °F - 66.2 °F 69% 29.92 in 6.2 mi ENE 11.5 mph - N/A   Scattered Clouds
10:30 PM 77.0 °F - 66.2 °F 69% 29.92 in 6.2 mi ENE 10.4 mph - N/A   Scattered Clouds
11:00 PM 77.0 °F - 66.2 °F 69% 29.92 in 6.2 mi ENE 11.5 mph - N/A   Scattered Clouds
11:30 PM 77.0 °F - 66.2 °F 69% 29.92 in 6.2 mi ENE 15.0 mph - N/A   Scattered Clouds